Year,Month,Day,Hour,Minute,Value (Times are PST for temperature in C)
2010,01,23,00,00,1.20
2010,01,23,00,01,1.20
2010,01,23,00,02,1.30
2010,01,23,00,03,1.30
2010,01,23,00,04,1.30
2010,01,23,00,05,1.30
2010,01,23,00,06,1.30
2010,01,23,00,07,1.30
2010,01,23,00,08,1.30
2010,01,23,00,09,1.30
2010,01,23,00,10,1.30
2010,01,23,00,11,1.30
2010,01,23,00,12,1.30
2010,01,23,00,13,1.20
2010,01,23,00,14,1.20
2010,01,23,00,15,1.30
2010,01,23,00,16,1.30
2010,01,23,00,17,1.30
2010,01,23,00,18,1.30
2010,01,23,00,19,1.30
2010,01,23,00,20,1.30
2010,01,23,00,21,1.30
2010,01,23,00,22,1.30
2010,01,23,00,23,1.30
2010,01,23,00,24,1.30
2010,01,23,00,25,1.30
2010,01,23,00,26,1.30
2010,01,23,00,27,1.30
2010,01,23,00,28,1.30
2010,01,23,00,29,1.30
2010,01,23,00,30,1.30
2010,01,23,00,31,1.30
2010,01,23,00,32,1.20
2010,01,23,00,33,1.20
2010,01,23,00,34,1.20
2010,01,23,00,35,1.10
2010,01,23,00,36,1.10
2010,01,23,00,37,1.00
2010,01,23,00,38,1.10
2010,01,23,00,39,1.00
2010,01,23,00,40,1.00
2010,01,23,00,41,1.10
2010,01,23,00,42,1.10
2010,01,23,00,43,1.10
2010,01,23,00,44,1.10
2010,01,23,00,45,1.10
2010,01,23,00,46,1.10
2010,01,23,00,47,1.10
2010,01,23,00,48,1.10
2010,01,23,00,49,1.10
2010,01,23,00,50,1.10
2010,01,23,00,51,1.10
2010,01,23,00,52,1.10
2010,01,23,00,53,1.10
2010,01,23,00,54,1.10
2010,01,23,00,55,1.10
2010,01,23,00,56,1.00
2010,01,23,00,57,1.00
2010,01,23,00,58,1.00
2010,01,23,00,59,1.00
2010,01,23,01,00,1.00
2010,01,23,01,01,1.00
2010,01,23,01,02,1.00
2010,01,23,01,03,1.10
2010,01,23,01,04,1.10
2010,01,23,01,05,1.10
2010,01,23,01,06,1.10
2010,01,23,01,07,1.10
2010,01,23,01,08,1.20
2010,01,23,01,09,1.20
2010,01,23,01,10,1.20
2010,01,23,01,11,1.10
2010,01,23,01,12,1.10
2010,01,23,01,13,1.10
2010,01,23,01,14,1.10
2010,01,23,01,15,1.00
2010,01,23,01,16,1.00
2010,01,23,01,17,1.00
2010,01,23,01,18,0.90
2010,01,23,01,19,0.90
2010,01,23,01,20,0.90
2010,01,23,01,21,0.90
2010,01,23,01,22,0.90
2010,01,23,01,23,0.80
2010,01,23,01,24,0.90
2010,01,23,01,25,0.90
2010,01,23,01,26,0.90
2010,01,23,01,27,0.90
2010,01,23,01,28,0.90
2010,01,23,01,29,0.90
2010,01,23,01,30,0.90
2010,01,23,01,31,0.90
2010,01,23,01,32,0.90
2010,01,23,01,33,0.90
2010,01,23,01,34,0.90
2010,01,23,01,35,0.90
2010,01,23,01,36,0.90
2010,01,23,01,37,0.80
2010,01,23,01,38,0.80
2010,01,23,01,39,0.80
2010,01,23,01,40,0.80
2010,01,23,01,41,0.80
2010,01,23,01,42,0.80
2010,01,23,01,43,0.80
2010,01,23,01,44,0.80
2010,01,23,01,45,0.80
2010,01,23,01,46,0.80
2010,01,23,01,47,0.80
2010,01,23,01,48,0.80
2010,01,23,01,49,0.80
2010,01,23,01,50,0.80
2010,01,23,01,51,0.90
2010,01,23,01,52,0.90
2010,01,23,01,53,0.90
2010,01,23,01,54,0.90
2010,01,23,01,55,0.90
2010,01,23,01,56,0.90
2010,01,23,01,57,0.80
2010,01,23,01,58,0.80
2010,01,23,01,59,0.80
2010,01,23,02,00,0.80
2010,01,23,02,01,0.80
2010,01,23,02,02,0.80
2010,01,23,02,03,0.80
2010,01,23,02,04,0.80
2010,01,23,02,05,0.70
2010,01,23,02,06,0.70
2010,01,23,02,07,0.70
2010,01,23,02,08,0.70
2010,01,23,02,09,0.70
2010,01,23,02,10,0.70
2010,01,23,02,11,0.70
2010,01,23,02,12,0.70
2010,01,23,02,13,0.70
2010,01,23,02,14,0.80
2010,01,23,02,15,0.80
2010,01,23,02,16,0.80
2010,01,23,02,17,0.80
2010,01,23,02,18,0.80
2010,01,23,02,19,0.80
2010,01,23,02,20,0.80
2010,01,23,02,21,0.80
2010,01,23,02,22,0.80
2010,01,23,02,23,0.80
2010,01,23,02,24,0.80
2010,01,23,02,25,0.80
2010,01,23,02,26,0.80
2010,01,23,02,27,0.80
2010,01,23,02,28,0.70
2010,01,23,02,29,0.70
2010,01,23,02,30,0.70
2010,01,23,02,31,0.70
2010,01,23,02,32,0.70
2010,01,23,02,33,0.70
2010,01,23,02,34,0.70
2010,01,23,02,35,0.70
2010,01,23,02,36,0.70
2010,01,23,02,37,0.70
2010,01,23,02,38,0.70
2010,01,23,02,39,0.70
2010,01,23,02,40,0.70
2010,01,23,02,41,0.70
2010,01,23,02,42,0.70
2010,01,23,02,43,0.70
2010,01,23,02,44,0.70
2010,01,23,02,45,0.70
2010,01,23,02,46,0.70
2010,01,23,02,47,0.60
2010,01,23,02,48,0.60
2010,01,23,02,49,0.60
2010,01,23,02,50,0.60
2010,01,23,02,51,0.60
2010,01,23,02,52,0.60
2010,01,23,02,53,0.60
2010,01,23,02,54,0.60
2010,01,23,02,55,0.60
2010,01,23,02,56,0.60
2010,01,23,02,57,0.50
2010,01,23,02,58,0.50
2010,01,23,02,59,0.40
2010,01,23,03,00,0.40
2010,01,23,03,01,0.40
2010,01,23,03,02,0.40
2010,01,23,03,03,0.40
2010,01,23,03,04,0.40
2010,01,23,03,05,0.30
2010,01,23,03,06,0.30
2010,01,23,03,07,0.30
2010,01,23,03,08,0.40
2010,01,23,03,09,0.40
2010,01,23,03,10,0.40
2010,01,23,03,11,0.40
2010,01,23,03,12,0.40
2010,01,23,03,13,0.40
2010,01,23,03,14,0.40
2010,01,23,03,15,0.40
2010,01,23,03,16,0.30
2010,01,23,03,17,0.30
2010,01,23,03,18,0.30
2010,01,23,03,19,0.40
2010,01,23,03,20,0.40
2010,01,23,03,21,0.40
2010,01,23,03,22,0.40
2010,01,23,03,23,0.40
2010,01,23,03,24,0.40
2010,01,23,03,25,0.40
2010,01,23,03,26,0.30
2010,01,23,03,27,0.30
2010,01,23,03,28,0.30
2010,01,23,03,29,0.30
2010,01,23,03,30,0.30
2010,01,23,03,31,0.30
2010,01,23,03,32,0.30
2010,01,23,03,33,0.40
2010,01,23,03,34,0.40
2010,01,23,03,35,0.40
2010,01,23,03,36,0.40
2010,01,23,03,37,0.40
2010,01,23,03,38,0.40
2010,01,23,03,39,0.40
2010,01,23,03,40,0.50
2010,01,23,03,41,0.60
2010,01,23,03,42,0.60
2010,01,23,03,43,0.70
2010,01,23,03,44,0.70
2010,01,23,03,45,0.80
2010,01,23,03,46,0.80
2010,01,23,03,47,0.80
2010,01,23,03,48,0.80
2010,01,23,03,49,0.70
2010,01,23,03,50,0.60
2010,01,23,03,51,0.60
2010,01,23,03,52,0.50
2010,01,23,03,53,0.50
2010,01,23,03,54,0.40
2010,01,23,03,55,0.40
2010,01,23,03,56,0.40
2010,01,23,03,57,0.40
2010,01,23,03,58,0.30
2010,01,23,03,59,0.30
2010,01,23,04,00,0.20
2010,01,23,04,01,0.10
2010,01,23,04,02,0.10
2010,01,23,04,03,0.00
2010,01,23,04,04,0.00
2010,01,23,04,05,-0.10
2010,01,23,04,06,-0.10
2010,01,23,04,07,-0.10
2010,01,23,04,08,-0.10
2010,01,23,04,09,-0.10
2010,01,23,04,10,-0.20
2010,01,23,04,11,-0.20
2010,01,23,04,12,-0.20
2010,01,23,04,13,-0.20
2010,01,23,04,14,-0.20
2010,01,23,04,15,-0.10
2010,01,23,04,16,-0.10
2010,01,23,04,17,0.00
2010,01,23,04,18,0.00
2010,01,23,04,19,0.10
2010,01,23,04,20,0.10
2010,01,23,04,21,0.10
2010,01,23,04,22,0.10
2010,01,23,04,23,0.10
2010,01,23,04,24,0.10
2010,01,23,04,25,0.10
2010,01,23,04,26,0.10
2010,01,23,04,27,0.20
2010,01,23,04,28,0.20
2010,01,23,04,29,0.20
2010,01,23,04,30,0.20
2010,01,23,04,31,0.20
2010,01,23,04,32,0.20
2010,01,23,04,33,0.20
2010,01,23,04,34,0.20
2010,01,23,04,35,0.20
2010,01,23,04,36,0.10
2010,01,23,04,37,0.00
2010,01,23,04,38,0.00
2010,01,23,04,39,-0.10
2010,01,23,04,40,-0.10
2010,01,23,04,41,-0.10
2010,01,23,04,42,0.00
2010,01,23,04,43,0.00
2010,01,23,04,44,0.10
2010,01,23,04,45,0.10
2010,01,23,04,46,0.10
2010,01,23,04,47,0.20
2010,01,23,04,48,0.20
2010,01,23,04,49,0.20
2010,01,23,04,50,0.30
2010,01,23,04,51,0.30
2010,01,23,04,52,0.30
2010,01,23,04,53,0.30
2010,01,23,04,54,0.30
2010,01,23,04,55,0.20
2010,01,23,04,56,0.20
2010,01,23,04,57,0.20
2010,01,23,04,58,0.20
2010,01,23,04,59,0.30
2010,01,23,05,00,0.30
2010,01,23,05,01,0.50
2010,01,23,05,02,0.60
2010,01,23,05,03,0.60
2010,01,23,05,04,0.60
2010,01,23,05,05,0.60
2010,01,23,05,06,0.60
2010,01,23,05,07,0.60
2010,01,23,05,08,0.60
2010,01,23,05,09,0.60
2010,01,23,05,10,0.60
2010,01,23,05,11,0.70
2010,01,23,05,12,0.70
2010,01,23,05,13,0.80
2010,01,23,05,14,0.80
2010,01,23,05,15,0.80
2010,01,23,05,16,0.80
2010,01,23,05,17,0.90
2010,01,23,05,18,0.90
2010,01,23,05,19,0.90
2010,01,23,05,20,1.00
2010,01,23,05,21,1.00
2010,01,23,05,22,1.10
2010,01,23,05,23,1.10
2010,01,23,05,24,1.10
2010,01,23,05,25,1.10
2010,01,23,05,26,1.10
2010,01,23,05,27,1.10
2010,01,23,05,28,1.10
2010,01,23,05,29,1.00
2010,01,23,05,30,1.00
2010,01,23,05,31,0.90
2010,01,23,05,32,0.90
2010,01,23,05,33,0.90
2010,01,23,05,34,0.90
2010,01,23,05,35,1.00
2010,01,23,05,36,1.10
2010,01,23,05,37,1.20
2010,01,23,05,38,1.30
2010,01,23,05,39,1.40
2010,01,23,05,40,1.60
2010,01,23,05,41,1.70
2010,01,23,05,42,1.70
2010,01,23,05,43,1.80
2010,01,23,05,44,1.80
2010,01,23,05,45,1.80
2010,01,23,05,46,1.80
2010,01,23,05,47,1.70
2010,01,23,05,48,1.70
2010,01,23,05,49,1.70
2010,01,23,05,50,1.60
2010,01,23,05,51,1.60
2010,01,23,05,52,1.50
2010,01,23,05,53,1.50
2010,01,23,05,54,1.40
2010,01,23,05,55,1.40
2010,01,23,05,56,1.40
2010,01,23,05,57,1.30
2010,01,23,05,58,1.30
2010,01,23,05,59,1.30
2010,01,23,06,00,1.30
2010,01,23,06,01,1.40
2010,01,23,06,02,1.40
2010,01,23,06,03,1.50
2010,01,23,06,04,1.60
2010,01,23,06,05,1.70
2010,01,23,06,06,1.80
2010,01,23,06,07,1.90
2010,01,23,06,08,1.90
2010,01,23,06,09,2.00
2010,01,23,06,10,2.00
2010,01,23,06,11,2.10
2010,01,23,06,12,2.20
2010,01,23,06,13,2.20
2010,01,23,06,14,2.20
2010,01,23,06,15,2.20
2010,01,23,06,16,2.20
2010,01,23,06,17,2.10
2010,01,23,06,18,2.10
2010,01,23,06,19,2.10
2010,01,23,06,20,2.10
2010,01,23,06,21,2.10
2010,01,23,06,22,2.10
2010,01,23,06,23,2.10
2010,01,23,06,24,2.10
2010,01,23,06,25,2.10
2010,01,23,06,26,2.20
2010,01,23,06,27,2.20
2010,01,23,06,28,2.30
2010,01,23,06,29,2.30
2010,01,23,06,30,2.30
2010,01,23,06,31,2.30
2010,01,23,06,32,2.30
2010,01,23,06,33,2.30
2010,01,23,06,34,2.30
2010,01,23,06,35,2.30
2010,01,23,06,36,2.30
2010,01,23,06,37,2.30
2010,01,23,06,38,2.30
2010,01,23,06,39,2.30
2010,01,23,06,40,2.30
2010,01,23,06,41,2.30
2010,01,23,06,42,2.30
2010,01,23,06,43,2.30
2010,01,23,06,44,2.30
2010,01,23,06,45,2.30
2010,01,23,06,46,2.30
2010,01,23,06,47,2.30
2010,01,23,06,48,2.30
2010,01,23,06,49,2.30
2010,01,23,06,50,2.30
2010,01,23,06,51,2.30
2010,01,23,06,52,2.30
2010,01,23,06,53,2.30
2010,01,23,06,54,2.30
2010,01,23,06,55,2.30
2010,01,23,06,56,2.40
2010,01,23,06,57,2.50
2010,01,23,06,58,2.60
2010,01,23,06,59,2.60
2010,01,23,07,00,2.60
2010,01,23,07,01,2.60
2010,01,23,07,02,2.70
2010,01,23,07,03,2.70
2010,01,23,07,04,2.80
2010,01,23,07,05,2.80
2010,01,23,07,06,2.90
2010,01,23,07,07,2.90
2010,01,23,07,08,3.00
2010,01,23,07,09,3.10
2010,01,23,07,10,3.20
2010,01,23,07,11,3.30
2010,01,23,07,12,3.30
2010,01,23,07,13,3.30
2010,01,23,07,14,3.40
2010,01,23,07,15,3.40
2010,01,23,07,16,3.40
2010,01,23,07,17,3.40
2010,01,23,07,18,3.40
2010,01,23,07,19,3.40
2010,01,23,07,20,3.40
2010,01,23,07,21,3.30
2010,01,23,07,22,3.30
2010,01,23,07,23,3.30
2010,01,23,07,24,3.30
2010,01,23,07,25,3.20
2010,01,23,07,26,3.20
2010,01,23,07,27,3.10
2010,01,23,07,28,3.00
2010,01,23,07,29,2.90
2010,01,23,07,30,2.90
2010,01,23,07,31,2.80
2010,01,23,07,32,2.70
2010,01,23,07,33,2.70
2010,01,23,07,34,2.60
2010,01,23,07,35,2.60
2010,01,23,07,36,2.60
2010,01,23,07,37,2.60
2010,01,23,07,38,2.60
2010,01,23,07,39,2.60
2010,01,23,07,40,2.60
2010,01,23,07,41,2.60
2010,01,23,07,42,2.60
2010,01,23,07,43,2.60
2010,01,23,07,44,2.60
2010,01,23,07,45,2.60
2010,01,23,07,46,2.60
2010,01,23,07,47,2.70
2010,01,23,07,48,2.70
2010,01,23,07,49,2.80
2010,01,23,07,50,2.90
2010,01,23,07,51,2.90
2010,01,23,07,52,3.00
2010,01,23,07,53,3.00
2010,01,23,07,54,3.00
2010,01,23,07,55,3.10
2010,01,23,07,56,3.10
2010,01,23,07,57,3.10
2010,01,23,07,58,3.10
2010,01,23,07,59,3.10
2010,01,23,08,00,3.10
2010,01,23,08,01,3.10
2010,01,23,08,02,3.10
2010,01,23,08,03,3.10
2010,01,23,08,04,3.10
2010,01,23,08,05,3.20
2010,01,23,08,06,3.20
2010,01,23,08,07,3.20
2010,01,23,08,08,3.20
2010,01,23,08,09,3.20
2010,01,23,08,10,3.20
2010,01,23,08,11,3.20
2010,01,23,08,12,3.20
2010,01,23,08,13,3.20
2010,01,23,08,14,3.20
2010,01,23,08,15,3.20
2010,01,23,08,16,3.20
2010,01,23,08,17,3.20
2010,01,23,08,18,3.20
2010,01,23,08,19,3.20
2010,01,23,08,20,3.20
2010,01,23,08,21,3.20
2010,01,23,08,22,3.20
2010,01,23,08,23,3.20
2010,01,23,08,24,3.20
2010,01,23,08,25,3.20
2010,01,23,08,26,3.20
2010,01,23,08,27,3.20
2010,01,23,08,28,3.20
2010,01,23,08,29,3.20
2010,01,23,08,30,3.20
2010,01,23,08,31,3.20
2010,01,23,08,32,3.30
2010,01,23,08,33,3.30
2010,01,23,08,34,3.30
2010,01,23,08,35,3.40
2010,01,23,08,36,3.40
2010,01,23,08,37,3.40
2010,01,23,08,38,3.40
2010,01,23,08,39,3.40
2010,01,23,08,40,3.50
2010,01,23,08,41,3.50
2010,01,23,08,42,3.50
2010,01,23,08,43,3.50
2010,01,23,08,44,3.50
2010,01,23,08,45,3.50
2010,01,23,08,46,3.50
2010,01,23,08,47,3.60
2010,01,23,08,48,3.60
2010,01,23,08,49,3.70
2010,01,23,08,50,3.70
2010,01,23,08,51,3.80
2010,01,23,08,52,3.80
2010,01,23,08,53,3.80
2010,01,23,08,54,3.90
2010,01,23,08,55,4.00
2010,01,23,08,56,4.00
2010,01,23,08,57,4.10
2010,01,23,08,58,4.20
2010,01,23,08,59,4.20
2010,01,23,09,00,4.30
2010,01,23,09,01,4.30
2010,01,23,09,02,4.40
2010,01,23,09,03,4.40
2010,01,23,09,04,4.40
2010,01,23,09,05,4.50
2010,01,23,09,06,4.50
2010,01,23,09,07,4.60
2010,01,23,09,08,4.60
2010,01,23,09,09,4.60
2010,01,23,09,10,4.70
2010,01,23,09,11,4.70
2010,01,23,09,12,4.80
2010,01,23,09,13,4.80
2010,01,23,09,14,4.80
2010,01,23,09,15,4.90
2010,01,23,09,16,5.00
2010,01,23,09,17,5.00
2010,01,23,09,18,5.00
2010,01,23,09,19,5.10
2010,01,23,09,20,5.10
2010,01,23,09,21,5.10
2010,01,23,09,22,5.10
2010,01,23,09,23,5.10
2010,01,23,09,24,5.20
2010,01,23,09,25,5.20
2010,01,23,09,26,5.20
2010,01,23,09,27,5.20
2010,01,23,09,28,5.20
2010,01,23,09,29,5.20
2010,01,23,09,30,5.30
2010,01,23,09,31,5.30
2010,01,23,09,32,5.30
2010,01,23,09,33,5.30
2010,01,23,09,34,5.30
2010,01,23,09,35,5.30
2010,01,23,09,36,5.30
2010,01,23,09,37,5.30
2010,01,23,09,38,5.20
2010,01,23,09,39,5.20
2010,01,23,09,40,5.10
2010,01,23,09,41,5.10
2010,01,23,09,42,5.10
2010,01,23,09,43,5.10
2010,01,23,09,44,5.00
2010,01,23,09,45,5.00
2010,01,23,09,46,5.00
2010,01,23,09,47,4.90
2010,01,23,09,48,4.80
2010,01,23,09,49,4.70
2010,01,23,09,50,4.70
2010,01,23,09,51,4.60
2010,01,23,09,52,4.60
2010,01,23,09,53,4.50
2010,01,23,09,54,4.50
2010,01,23,09,55,4.40
2010,01,23,09,56,4.40
2010,01,23,09,57,4.30
2010,01,23,09,58,4.30
2010,01,23,09,59,4.30
2010,01,23,10,00,4.20
2010,01,23,10,01,4.20
2010,01,23,10,02,4.20
2010,01,23,10,03,4.20
2010,01,23,10,04,4.20
2010,01,23,10,05,4.20
2010,01,23,10,06,4.20
2010,01,23,10,07,4.20
2010,01,23,10,08,4.20
2010,01,23,10,09,4.30
2010,01,23,10,10,4.30
2010,01,23,10,11,4.30
2010,01,23,10,12,4.30
2010,01,23,10,13,4.30
2010,01,23,10,14,4.40
2010,01,23,10,15,4.40
2010,01,23,10,16,4.40
2010,01,23,10,17,4.40
2010,01,23,10,18,4.50
2010,01,23,10,19,4.50
2010,01,23,10,20,4.50
2010,01,23,10,21,4.60
2010,01,23,10,22,4.60
2010,01,23,10,23,4.60
2010,01,23,10,24,4.60
2010,01,23,10,25,4.70
2010,01,23,10,26,4.70
2010,01,23,10,27,4.80
2010,01,23,10,28,4.80
2010,01,23,10,29,4.80
2010,01,23,10,30,4.80
2010,01,23,10,31,4.90
2010,01,23,10,32,4.90
2010,01,23,10,33,5.00
2010,01,23,10,34,5.00
2010,01,23,10,35,5.10
2010,01,23,10,36,5.10
2010,01,23,10,37,5.10
2010,01,23,10,38,5.10
2010,01,23,10,39,5.20
2010,01,23,10,40,5.20
2010,01,23,10,41,5.20
2010,01,23,10,42,5.30
2010,01,23,10,43,5.30
2010,01,23,10,44,5.30
2010,01,23,10,45,5.40
2010,01,23,10,46,5.40
2010,01,23,10,47,5.40
2010,01,23,10,48,5.30
2010,01,23,10,49,5.30
2010,01,23,10,50,5.30
2010,01,23,10,51,5.30
2010,01,23,10,52,5.30
2010,01,23,10,53,5.30
2010,01,23,10,54,5.30
2010,01,23,10,55,5.30
2010,01,23,10,56,5.30
2010,01,23,10,57,5.30
2010,01,23,10,58,5.30
2010,01,23,10,59,5.30
2010,01,23,11,00,5.20
2010,01,23,11,01,5.30
2010,01,23,11,02,5.30
2010,01,23,11,03,5.30
2010,01,23,11,04,5.30
2010,01,23,11,05,5.30
2010,01,23,11,06,5.30
2010,01,23,11,07,5.30
2010,01,23,11,08,5.30
2010,01,23,11,09,5.40
2010,01,23,11,10,5.40
2010,01,23,11,11,5.40
2010,01,23,11,12,5.40
2010,01,23,11,13,5.40
2010,01,23,11,14,5.50
2010,01,23,11,15,5.50
2010,01,23,11,16,5.50
2010,01,23,11,17,5.60
2010,01,23,11,18,5.60
2010,01,23,11,19,5.60
2010,01,23,11,20,5.70
2010,01,23,11,21,5.70
2010,01,23,11,22,5.80
2010,01,23,11,23,5.80
2010,01,23,11,24,5.90
2010,01,23,11,25,5.90
2010,01,23,11,26,6.00
2010,01,23,11,27,6.00
2010,01,23,11,28,6.10
2010,01,23,11,29,6.10
2010,01,23,11,30,6.20
2010,01,23,11,31,6.30
2010,01,23,11,32,6.30
2010,01,23,11,33,6.40
2010,01,23,11,34,6.40
2010,01,23,11,35,6.40
2010,01,23,11,36,6.50
2010,01,23,11,37,6.50
2010,01,23,11,38,6.50
2010,01,23,11,39,6.60
2010,01,23,11,40,6.60
2010,01,23,11,41,6.60
2010,01,23,11,42,6.60
2010,01,23,11,43,6.70
2010,01,23,11,44,6.70
2010,01,23,11,45,6.70
2010,01,23,11,46,6.70
2010,01,23,11,47,6.80
2010,01,23,11,48,6.80
2010,01,23,11,49,6.80
2010,01,23,11,50,6.90
2010,01,23,11,51,6.90
2010,01,23,11,52,6.90
2010,01,23,11,53,6.90
2010,01,23,11,54,7.00
2010,01,23,11,55,7.00
2010,01,23,11,56,7.00
2010,01,23,11,57,7.00
2010,01,23,11,58,7.00
2010,01,23,11,59,7.10
2010,01,23,12,00,7.10
2010,01,23,12,01,7.10
2010,01,23,12,02,7.10
2010,01,23,12,03,7.10
2010,01,23,12,04,7.20
2010,01,23,12,05,7.20
2010,01,23,12,06,7.30
2010,01,23,12,07,7.30
2010,01,23,12,08,7.40
2010,01,23,12,09,7.40
2010,01,23,12,10,7.50
2010,01,23,12,11,7.60
2010,01,23,12,12,7.60
2010,01,23,12,13,7.70
2010,01,23,12,14,7.70
2010,01,23,12,15,7.70
2010,01,23,12,16,7.70
2010,01,23,12,17,7.70
2010,01,23,12,18,7.60
2010,01,23,12,19,7.60
2010,01,23,12,20,7.60
2010,01,23,12,21,7.60
2010,01,23,12,22,7.70
2010,01,23,12,23,7.70
2010,01,23,12,24,7.70
2010,01,23,12,25,7.70
2010,01,23,12,26,7.60
2010,01,23,12,27,7.60
2010,01,23,12,28,7.60
2010,01,23,12,29,7.60
2010,01,23,12,30,7.60
2010,01,23,12,31,7.60
2010,01,23,12,32,7.70
2010,01,23,12,33,7.70
2010,01,23,12,34,7.70
2010,01,23,12,35,7.70
2010,01,23,12,36,7.70
2010,01,23,12,37,7.70
2010,01,23,12,38,7.80
2010,01,23,12,39,7.80
2010,01,23,12,40,7.80
2010,01,23,12,41,7.80
2010,01,23,12,42,7.80
2010,01,23,12,43,7.80
2010,01,23,12,44,7.70
2010,01,23,12,45,7.70
2010,01,23,12,46,7.70
2010,01,23,12,47,7.70
2010,01,23,12,48,7.70
2010,01,23,12,49,7.70
2010,01,23,12,50,7.70
2010,01,23,12,51,7.70
2010,01,23,12,52,7.70
2010,01,23,12,53,7.70
2010,01,23,12,54,7.70
2010,01,23,12,55,7.80
2010,01,23,12,56,7.80
2010,01,23,12,57,7.80
2010,01,23,12,58,7.90
2010,01,23,12,59,7.90
2010,01,23,13,00,7.90
2010,01,23,13,01,7.90
2010,01,23,13,02,7.90
2010,01,23,13,03,8.00
2010,01,23,13,04,8.00
2010,01,23,13,05,8.00
2010,01,23,13,06,8.10
2010,01,23,13,07,8.10
2010,01,23,13,08,8.10
2010,01,23,13,09,8.00
2010,01,23,13,10,8.00
2010,01,23,13,11,7.90
2010,01,23,13,12,7.90
2010,01,23,13,13,7.90
2010,01,23,13,14,8.00
2010,01,23,13,15,8.00
2010,01,23,13,16,8.10
2010,01,23,13,17,8.10
2010,01,23,13,18,8.00
2010,01,23,13,19,7.90
2010,01,23,13,20,7.90
2010,01,23,13,21,7.90
2010,01,23,13,22,7.90
2010,01,23,13,23,7.90
2010,01,23,13,24,7.90
2010,01,23,13,25,7.90
2010,01,23,13,26,7.90
2010,01,23,13,27,7.90
2010,01,23,13,28,7.90
2010,01,23,13,29,7.90
2010,01,23,13,30,7.90
2010,01,23,13,31,8.00
2010,01,23,13,32,8.00
2010,01,23,13,33,8.10
2010,01,23,13,34,8.10
2010,01,23,13,35,8.10
2010,01,23,13,36,8.10
2010,01,23,13,37,8.10
2010,01,23,13,38,8.20
2010,01,23,13,39,8.20
2010,01,23,13,40,8.20
2010,01,23,13,41,8.30
2010,01,23,13,42,8.30
2010,01,23,13,43,8.30
2010,01,23,13,44,8.30
2010,01,23,13,45,8.30
2010,01,23,13,46,8.30
2010,01,23,13,47,8.30
2010,01,23,13,48,8.30
2010,01,23,13,49,8.30
2010,01,23,13,50,8.30
2010,01,23,13,51,8.30
2010,01,23,13,52,8.30
2010,01,23,13,53,8.40
2010,01,23,13,54,8.40
2010,01,23,13,55,8.40
2010,01,23,13,56,8.40
2010,01,23,13,57,8.40
2010,01,23,13,58,8.50
2010,01,23,13,59,8.50
2010,01,23,14,00,8.40
2010,01,23,14,01,8.40
2010,01,23,14,02,8.40
2010,01,23,14,03,8.40
2010,01,23,14,04,8.40
2010,01,23,14,05,8.40
2010,01,23,14,06,8.40
2010,01,23,14,07,8.40
2010,01,23,14,08,8.40
2010,01,23,14,09,8.40
2010,01,23,14,10,8.40
2010,01,23,14,11,8.40
2010,01,23,14,12,8.40
2010,01,23,14,13,8.40
2010,01,23,14,14,8.40
2010,01,23,14,15,8.30
2010,01,23,14,16,8.30
2010,01,23,14,17,8.30
2010,01,23,14,18,8.20
2010,01,23,14,19,8.20
2010,01,23,14,20,8.20
2010,01,23,14,21,8.20
2010,01,23,14,22,8.20
2010,01,23,14,23,8.20
2010,01,23,14,24,8.30
2010,01,23,14,25,8.30
2010,01,23,14,26,8.30
2010,01,23,14,27,8.30
2010,01,23,14,28,8.30
2010,01,23,14,29,8.40
2010,01,23,14,30,8.40
2010,01,23,14,31,8.40
2010,01,23,14,32,8.40
2010,01,23,14,33,8.40
2010,01,23,14,34,8.40
2010,01,23,14,35,8.50
2010,01,23,14,36,8.50
2010,01,23,14,37,8.50
2010,01,23,14,38,8.50
2010,01,23,14,39,8.50
2010,01,23,14,40,8.50
2010,01,23,14,41,8.50
2010,01,23,14,42,8.50
2010,01,23,14,43,8.50
2010,01,23,14,44,8.50
2010,01,23,14,45,8.50
2010,01,23,14,46,8.60
2010,01,23,14,47,8.60
2010,01,23,14,48,8.60
2010,01,23,14,49,8.60
2010,01,23,14,50,8.60
2010,01,23,14,51,8.50
2010,01,23,14,52,8.50
2010,01,23,14,53,8.50
2010,01,23,14,54,8.40
2010,01,23,14,55,8.40
2010,01,23,14,56,8.40
2010,01,23,14,57,8.50
2010,01,23,14,58,8.50
2010,01,23,14,59,8.40
2010,01,23,15,00,8.40
2010,01,23,15,01,8.40
2010,01,23,15,02,8.40
2010,01,23,15,03,8.40
2010,01,23,15,04,8.40
2010,01,23,15,05,8.40
2010,01,23,15,06,8.40
2010,01,23,15,07,8.40
2010,01,23,15,08,8.40
2010,01,23,15,09,8.40
2010,01,23,15,10,8.40
2010,01,23,15,11,8.40
2010,01,23,15,12,8.40
2010,01,23,15,13,8.50
2010,01,23,15,14,8.50
2010,01,23,15,15,8.50
2010,01,23,15,16,8.50
2010,01,23,15,17,8.50
2010,01,23,15,18,8.50
2010,01,23,15,19,8.50
2010,01,23,15,20,8.50
2010,01,23,15,21,8.50
2010,01,23,15,22,8.40
2010,01,23,15,23,8.40
2010,01,23,15,24,8.30
2010,01,23,15,25,8.30
2010,01,23,15,26,8.30
2010,01,23,15,27,8.20
2010,01,23,15,28,8.20
2010,01,23,15,29,8.20
2010,01,23,15,30,8.10
2010,01,23,15,31,8.10
2010,01,23,15,32,8.00
2010,01,23,15,33,8.00
2010,01,23,15,34,8.00
2010,01,23,15,35,7.90
2010,01,23,15,36,7.90
2010,01,23,15,37,7.90
2010,01,23,15,38,7.90
2010,01,23,15,39,7.90
2010,01,23,15,40,7.90
2010,01,23,15,41,7.90
2010,01,23,15,42,7.90
2010,01,23,15,43,7.80
2010,01,23,15,44,7.80
2010,01,23,15,45,7.80
2010,01,23,15,46,7.80
2010,01,23,15,47,7.80
2010,01,23,15,48,7.80
2010,01,23,15,49,7.80
2010,01,23,15,50,7.80
2010,01,23,15,51,7.80
2010,01,23,15,52,7.80
2010,01,23,15,53,7.80
2010,01,23,15,54,7.80
2010,01,23,15,55,7.70
2010,01,23,15,56,7.70
2010,01,23,15,57,7.70
2010,01,23,15,58,7.70
2010,01,23,15,59,7.70
2010,01,23,16,00,7.70
2010,01,23,16,01,7.70
2010,01,23,16,02,7.70
2010,01,23,16,03,7.60
2010,01,23,16,04,7.60
2010,01,23,16,05,7.60
2010,01,23,16,06,7.60
2010,01,23,16,07,7.60
2010,01,23,16,08,7.60
2010,01,23,16,09,7.60
2010,01,23,16,10,7.60
2010,01,23,16,11,7.60
2010,01,23,16,12,7.60
2010,01,23,16,13,7.50
2010,01,23,16,14,7.50
2010,01,23,16,15,7.50
2010,01,23,16,16,7.50
2010,01,23,16,17,7.50
2010,01,23,16,18,7.40
2010,01,23,16,19,7.40
2010,01,23,16,20,7.40
2010,01,23,16,21,7.40
2010,01,23,16,22,7.40
2010,01,23,16,23,7.40
2010,01,23,16,24,7.30
2010,01,23,16,25,7.30
2010,01,23,16,26,7.30
2010,01,23,16,27,7.30
2010,01,23,16,28,7.20
2010,01,23,16,29,7.20
2010,01,23,16,30,7.20
2010,01,23,16,31,7.20
2010,01,23,16,32,7.20
2010,01,23,16,33,7.20
2010,01,23,16,34,7.20
2010,01,23,16,35,7.20
2010,01,23,16,36,7.10
2010,01,23,16,37,7.10
2010,01,23,16,38,7.10
2010,01,23,16,39,7.10
2010,01,23,16,40,7.10
2010,01,23,16,41,7.10
2010,01,23,16,42,7.10
2010,01,23,16,43,7.00
2010,01,23,16,44,7.00
2010,01,23,16,45,7.00
2010,01,23,16,46,6.90
2010,01,23,16,47,6.90
2010,01,23,16,48,6.90
2010,01,23,16,49,6.90
2010,01,23,16,50,6.90
2010,01,23,16,51,6.80
2010,01,23,16,52,6.80
2010,01,23,16,53,6.80
2010,01,23,16,54,6.80
2010,01,23,16,55,6.80
2010,01,23,16,56,6.70
2010,01,23,16,57,6.70
2010,01,23,16,58,6.70
2010,01,23,16,59,6.70
2010,01,23,17,00,6.70
2010,01,23,17,01,6.70
2010,01,23,17,02,6.70
2010,01,23,17,03,6.70
2010,01,23,17,04,6.60
2010,01,23,17,05,6.60
2010,01,23,17,06,6.60
2010,01,23,17,07,6.60
2010,01,23,17,08,6.60
2010,01,23,17,09,6.60
2010,01,23,17,10,6.60
2010,01,23,17,11,6.60
2010,01,23,17,12,6.60
2010,01,23,17,13,6.60
2010,01,23,17,14,6.60
2010,01,23,17,15,6.60
2010,01,23,17,16,6.60
2010,01,23,17,17,6.60
2010,01,23,17,18,6.60
2010,01,23,17,19,6.50
2010,01,23,17,20,6.50
2010,01,23,17,21,6.50
2010,01,23,17,22,6.50
2010,01,23,17,23,6.50
2010,01,23,17,24,6.50
2010,01,23,17,25,6.50
2010,01,23,17,26,6.50
2010,01,23,17,27,6.50
2010,01,23,17,28,6.50
2010,01,23,17,29,6.50
2010,01,23,17,30,6.50
2010,01,23,17,31,6.50
2010,01,23,17,32,6.40
2010,01,23,17,33,6.40
2010,01,23,17,34,6.40
2010,01,23,17,35,6.40
2010,01,23,17,36,6.40
2010,01,23,17,37,6.40
2010,01,23,17,38,6.30
2010,01,23,17,39,6.30
2010,01,23,17,40,6.30
2010,01,23,17,41,6.30
2010,01,23,17,42,6.30
2010,01,23,17,43,6.20
2010,01,23,17,44,6.20
2010,01,23,17,45,6.20
2010,01,23,17,46,6.20
2010,01,23,17,47,6.10
2010,01,23,17,48,6.10
2010,01,23,17,49,6.10
2010,01,23,17,50,6.10
2010,01,23,17,51,6.00
2010,01,23,17,52,6.00
2010,01,23,17,53,6.00
2010,01,23,17,54,6.00
2010,01,23,17,55,5.90
2010,01,23,17,56,5.90
2010,01,23,17,57,5.90
2010,01,23,17,58,5.90
2010,01,23,17,59,5.90
2010,01,23,18,00,5.90
2010,01,23,18,01,5.90
2010,01,23,18,02,5.80
2010,01,23,18,03,5.80
2010,01,23,18,04,5.80
2010,01,23,18,05,5.80
2010,01,23,18,06,5.80